Temperature
6 5 5 5 5 5 4 4 4 4 4 3 3 3 3 3 3 3 3 3 3 3 3 3 3 3 3 3 3 3 3 3 3 4 4 4 4 5 5 5 5 5 6
5 5 5 5 4 4 4 4 4 4 3 3 3 3 3 3 3 3 3 3 3 3 3 3 3 3 2 2 2 3 3 3 3 3 4 4 4 4 5 5 5 5 5
5 5 4 4 4 4 4 4 4 3 3 3 3 3 2 2 2 2 2 2 2 2 2 2 2 2 2 2 2 2 2 2 2 3 3 3 4 4 4 4 5 5 5
5 4 4 4 4 3 3 3 3 3 3 3 2 2 2 2 2 2 2 2 2 2 2 2 2 2 2 2 2 2 2 2 2 2 2 3 3 3 3 4 4 4 4
4 4 4 4 3 3 3 3 3 3 2 2 2 2 2 2 2 2 2 1 1 1 2 2 2 1 1 2 2 2 2 2 2 2 2 2 3 3 3 3 3 4 4
4 4 3 3 3 3 3 3 2 2 2 2 2 2 2 2 1 1 1 1 1 1 1 1 1 1 1 1 2 2 2 2 2 2 2 2 3 3 3 3 3 3 3
4 3 3 3 3 2 2 2 2 2 1 1 1 1 1 1 1 1 1 0 0 1 1 1 1 1 1 1 1 2 2 2 2 2 2 2 3 3 3 3 3 3 3
3 3 3 2 2 2 2 1 1 1 1 1 1 1 1 1 1 1 0 0 0 0 0 0 1 1 1 1 1 1 1 1 2 2 2 2 3 3 3 3 3 3 3
3 2 2 2 2 2 1 1 1 1 1 1 1 1 1 1 1 0 0 -0 -0 -0 0 0 0 1 1 1 1 1 1 1 1 2 2 2 2 2 3 2 2 2 2
2 2 2 1 1 1 1 1 1 1 0 0 0 0 0 0 0 0 -0 -0 -1 -0 -0 0 0 0 0 0 1 1 1 1 1 2 2 2 2 2 2 2 2 2 2
2 1 1 1 1 1 1 1 0 0 0 0 0 0 0 -0 -0 -0 -0 -1 -1 -1 -1 -0 -0 -0 -0 0 0 1 1 1 1 1 1 2 2 2 2 2 2 2 2
1 1 1 1 1 0 0 0 0 -0 -0 -0 -0 -0 -0 -0 -1 -1 -1 -1 -1 -1 -1 -1 -1 -1 -0 -0 0 0 1 1 1 1 1 1 1 1 1 2 2 2 2
1 1 1 0 0 0 -0 -0 -0 -1 -1 -1 -1 -1 -1 -1 -1 -1 -1 -1 -1 -1 -1 -1 -1 -1 -1 -0 -0 0 1 1 1 1 1 1 1 1 1 1 1 1 1
0 0 -0 -0 -0 -0 -1 -1 -1 -1 -2 -2 -2 -2 -2 -2 -1 -1 -2 -2 -2 -2 -2 -2 -1 -1 -1 -1 -0 0 0 0 0 0 0 0 0 1 1 1 1 1 1
-1 -1 -1 -1 -1 -1 -1 -1 -2 -2 -2 -3 -3 -3 -3 -2 -2 -2 -2 -2 -2 -2 -2 -1 -1 -1 -1 -1 -1 -0 -0 0 0 0 0 0 0 0 0 0 0 1 0
-1 -1 -1 -1 -1 -1 -2 -1 -2 -2 -2 -2 -3 -3 -3 -3 -2 -2 -2 -2 -2 -2 -1 -2 -2 -2 -2 -1 -1 -1 -1 -0 -0 0 0 0 0 0 0 -0 0 0 0
-2 -2 -2 -2 -2 -2 -2 -2 -2 -2 -2 -2 -2 -3 -3 -3 -2 -2 -2 -2 -2 -2 -1 -2 -2 -2 -2 -1 -1 -1 -1 -0 -0 -0 -0 0 0 0 -0 -0 -0 -0 -0
-2 -2 -2 -2 -2 -2 -3 -3 -3 -3 -3 -2 -2 -2 -2 -2 -2 -2 -2 -2 -2 -2 -2 -2 -2 -2 -2 -2 -2 -1 -1 -0 -0 -0 -0 -0 -0 -0 -0 -1 -1 -1 -1
-2 -2 -2 -2 -3 -3 -3 -3 -3 -3 -4 -3 -3 -2 -2 -2 -2 -2 -2 -2 -2 -2 -2 -2 -2 -2 -2 -2 -2 -1 -1 -1 -0 -0 -1 -1 -1 -1 -1 -1 -1 -1 -1
-2 -3 -3 -3 -3 -3 -3 -4 -4 -4 -4 -4 -4 -4 -3 -3 -3 -3 -2 -3 -3 -3 -3 -2 -2 -2 -2 -2 -2 -1 -1 -1 -1 -1 -1 -1 -1 -1 -1 -1 -1 -1 -1
-3 -3 -3 -3 -3 -4 -4 -4 -4 -4 -4 -4 -4 -4 -4 -4 -3 -3 -3 -3 -3 -3 -3 -3 -2 -2 -2 -2 -2 -1 -1 -1 -1 -1 -1 -1 -1 -1 -1 -1 -1 -1 -1
-4 -4 -4 -4 -4 -4 -4 -4 -4 -4 -4 -4 -4 -4 -4 -4 -4 -4 -3 -3 -3 -3 -3 -3 -3 -2 -2 -2 -2 -2 -1 -1 -1 -1 -1 -1 -1 -1 -1 -1 -1 -1 -1
-4 -4 -4 -4 -4 -4 -4 -4 -4 -4 -4 -4 -4 -4 -4 -4 -4 -4 -4 -4 -3 -3 -3 -3 -3 -2 -2 -2 -2 -2 -1 -1 -1 -1 -1 -1 -1 -1 -1 -1 -1 -1 -1
-4 -4 -4 -4 -4 -4 -4 -4 -4 -4 -4 -4 -4 -4 -4 -4 -4 -4 -4 -4 -3 -3 -3 -3 -3 -2 -2 -2 -2 -2 -2 -1 -1 -1 -1 -1 -1 -1 -1 -1 -1 -1 -1
-5 -5 -5 -5 -5 -5 -5 -5 -4 -4 -4 -4 -4 -4 -4 -4 -4 -4 -4 -4 -3 -3 -3 -3 -3 -2 -2 -2 -2 -2 -2 -1 -1 -1 -1 -1 -1 -1 -1 -1 -1 -1 -1
-5 -5 -5 -5 -5 -5 -5 -5 -5 -5 -5 -5 -5 -5 -4 -4 -4 -4 -4 -4 -4 -3 -3 -3 -3 -2 -2 -2 -2 -2 -2 -1 -1 -1 -1 -1 -1 -1 -1 -1 -1 -1 -1
Wind_Speed
6 5 5 5 5 5 6 7 7 7 7 8 8 8 8 8 8 8 8 9 10 9 9 10 11 9 8 7 7 7 8 7 10 8 5 5 5 6 6 5 7 7 8
5 5 5 5 5 6 6 7 7 7 8 8 8 8 8 8 8 9 10 10 10 10 10 10 11 9 10 8 7 8 8 7 9 10 7 5 6 6 5 5 5 5 5
4 4 4 5 5 6 7 7 7 7 7 7 7 8 9 9 9 9 9 10 10 10 10 10 11 10 11 8 9 9 7 8 7 8 8 5 5 4 4 4 5 3 4
3 3 4 5 6 6 7 6 7 7 7 7 7 8 8 9 9 9 9 9 9 10 10 10 10 11 11 10 9 9 8 8 7 7 7 6 5 4 3 4 3 2 3
3 4 5 6 5 6 6 6 6 7 7 7 7 8 8 8 8 9 8 9 9 9 9 10 10 11 13 11 9 8 8 7 7 7 7 6 6 5 5 3 4 2 2
3 5 5 5 5 6 6 6 6 6 6 7 7 8 8 9 13 15 12 8 8 9 9 9 9 10 13 15 15 14 12 10 9 8 7 8 8 6 4 4 3 3 3
4 5 5 5 5 6 6 6 6 6 6 7 8 8 9 11 15 15 15 9 8 8 8 8 8 8 10 8 11 13 13 15 14 11 10 9 8 6 5 5 5 4 3
4 4 5 5 6 6 6 6 6 6 6 7 8 8 8 11 15 14 14 8 7 8 8 8 7 7 7 7 7 7 7 9 10 8 8 8 7 6 6 5 4 2 0
4 5 5 5 6 6 6 7 6 6 7 7 7 7 8 10 12 13 12 6 6 7 7 7 7 6 10 10 7 6 6 6 7 8 8 7 8 8 6 4 4 4 2
5 5 5 5 5 6 7 7 6 6 7 7 7 7 8 8 11 13 12 5 6 6 6 6 8 8 9 10 7 6 7 6 4 3 3 3 3 4 5 5 6 5 3
5 5 5 5 5 6 6 6 6 6 7 7 8 7 7 9 11 12 12 5 5 6 6 5 5 8 10 10 8 6 8 6 3 3 2 2 2 2 1 1 2 4 4
4 5 5 5 5 5 5 6 6 6 7 7 7 8 6 6 9 10 12 10 8 6 6 5 4 7 9 9 6 5 6 4 2 2 2 2 2 2 1 2 3 4 2
5 5 5 6 5 5 5 6 6 5 6 7 7 7 7 6 6 11 11 10 10 6 5 6 7 8 8 6 5 4 3 2 2 2 3 3 2 3 3 3 4 5 5
5 5 5 5 5 5 5 5 5 5 6 7 7 7 7 7 6 5 5 6 7 6 5 6 7 6 5 4 3 2 0 2 3 3 3 3 3 3 3 3 3 4 3
5 5 5 4 4 5 5 4 5 5 6 7 6 6 7 7 8 11 8 6 5 4 5 3 3 3 3 2 2 2 1 1 2 3 4 3 3 3 2 2 3 3 3
4 5 4 4 4 4 5 6 7 7 11 10 9 8 7 9 12 12 11 10 9 7 4 2 3 2 2 2 2 2 0 1 2 3 4 4 4 4 3 3 4 4 5
4 4 4 4 4 5 5 5 7 8 9 9 9 10 9 10 11 11 11 9 9 7 3 2 3 2 2 2 1 1 1 1 2 3 4 4 4 4 4 4 4 4 4
4 5 4 4 4 4 5 5 5 6 8 7 8 10 11 11 11 11 10 7 5 5 2 2 3 3 2 2 1 1 0 1 2 3 4 4 4 5 5 4 4 5 5
4 3 3 4 4 4 4 4 4 5 6 6 7 8 10 10 10 10 8 4 4 4 3 3 2 2 2 2 1 0 1 2 3 4 4 5 5 5 5 5 5 7 5
4 6 5 4 4 4 4 4 4 5 5 5 6 6 7 7 6 7 6 4 4 4 4 3 3 2 1 1 1 0 1 2 3 4 4 5 4 5 5 5 5 5 4
4 4 6 5 4 4 4 4 4 4 5 5 5 7 8 5 5 5 5 5 4 4 4 4 3 2 1 1 0 1 1 1 2 4 4 4 5 5 5 5 5 5 6
3 3 3 3 3 3 4 4 4 4 5 6 6 7 9 5 4 4 5 5 4 4 4 4 3 3 2 1 0 0 1 2 2 3 4 5 5 5 5 5 5 6 7
3 3 4 4 4 5 5 4 4 4 5 5 5 5 5 5 4 4 5 5 5 5 4 4 3 3 2 2 1 0 1 2 2 3 5 5 5 5 5 6 7 7 7
4 4 4 4 4 4 4 5 4 5 5 5 5 5 5 4 4 5 5 5 5 5 4 4 3 3 3 2 1 1 1 2 3 3 5 6 6 6 6 6 6 8 8
4 4 4 4 4 4 4 5 5 5 5 5 5 5 4 4 4 5 5 4 5 5 5 5 4 4 3 3 2 2 4 5 5 5 5 6 7 6 7 7 7 8 8
4 4 4 4 4 4 4 5 5 5 5 5 5 4 4 4 4 4 4 4 4 5 5 4 5 5 4 3 3 4 5 6 7 7 6 6 7 7 7 7 9 9 10
Wind_Direction
267 266 270 275 275 275 274 273 273 273 271 268 268 269 268 267 265 261 261 260 255 256 252 246 248 248 247 247 239 234 238 241 257 270 262 253 238 241 255 246 243 232 240
267 268 271 276 281 283 282 281 279 278 275 269 268 267 267 267 264 260 261 261 256 256 255 250 250 248 243 244 241 237 239 242 250 264 271 258 251 234 240 254 254 241 234
272 273 278 279 283 284 285 286 285 284 279 274 271 269 269 268 268 264 262 261 257 255 254 252 251 245 244 243 242 240 239 244 244 252 267 264 260 242 238 258 247 244 240
285 281 281 281 280 282 287 289 288 287 284 280 275 272 271 271 269 268 266 262 260 259 255 252 253 245 242 240 242 239 237 239 240 243 257 263 256 240 225 237 251 245 247
289 287 282 285 285 288 292 293 290 288 288 285 284 284 284 281 274 275 273 268 266 267 264 257 253 254 251 245 244 236 232 237 237 239 245 254 252 233 231 229 239 262 267
282 281 284 288 293 296 297 297 296 293 292 293 291 289 289 287 288 287 286 276 270 266 268 265 259 256 259 255 254 249 239 235 234 237 244 242 246 240 239 223 223 243 259
283 286 291 294 295 295 297 299 296 297 296 294 291 290 289 290 293 290 290 286 277 271 267 267 265 260 262 254 256 256 250 246 244 239 238 242 239 229 220 223 220 229 247
292 295 297 297 295 296 295 293 296 295 293 295 295 292 291 293 298 297 298 292 283 278 272 267 263 262 257 254 253 248 244 245 246 243 237 241 237 224 214 216 196 166 145
293 292 293 294 297 300 297 293 293 297 298 296 296 296 294 294 297 299 300 288 285 284 279 269 259 258 255 259 258 253 253 252 250 242 238 238 234 222 206 182 169 163 199
292 291 294 293 294 296 295 298 300 300 299 301 301 300 296 294 295 302 303 295 293 292 289 279 267 262 261 263 252 244 249 249 233 225 228 229 213 198 215 209 187 182 187
303 304 300 298 297 297 301 304 306 307 308 308 306 304 300 297 299 303 304 298 290 293 292 289 278 272 273 276 270 253 245 243 218 199 193 180 162 157 171 187 179 180 184
320 316 311 307 308 311 311 311 311 310 311 312 312 311 309 306 309 311 311 305 300 297 295 296 293 290 289 291 286 259 246 245 209 188 176 163 154 152 137 108 104 99 104
328 319 319 322 319 316 313 312 315 315 313 314 314 314 316 317 317 320 324 326 321 309 300 298 299 296 296 296 291 276 255 205 166 171 163 162 159 156 138 113 100 93 76
325 320 321 323 324 326 324 317 315 314 311 311 312 313 316 319 322 326 326 326 326 325 322 322 326 330 329 326 324 319 287 158 161 163 151 145 136 134 135 142 134 120 94
325 320 322 324 322 324 320 315 312 304 299 304 303 306 311 315 318 325 324 323 323 315 322 334 350 349 350 355 358 2 82 135 149 146 148 148 145 137 134 136 134 124 130
326 325 323 321 319 322 324 324 320 315 317 317 314 310 312 312 317 323 327 328 326 322 331 348 342 335 326 328 338 345 30 145 150 151 155 157 153 146 136 124 125 129 130
314 315 315 315 317 320 320 320 321 326 327 329 329 327 325 325 328 329 330 335 335 335 342 337 329 326 326 332 334 328 284 176 158 156 157 155 152 147 140 137 135 130 126
317 316 318 313 314 317 317 316 316 319 325 329 333 338 339 338 338 336 333 339 343 348 349 332 325 327 332 334 334 320 297 149 144 146 145 145 147 146 143 143 143 141 137
320 319 316 314 314 313 315 318 321 322 322 324 329 334 339 342 345 345 346 352 344 342 342 337 331 330 332 334 337 333 136 148 148 146 146 146 147 144 144 144 142 139 138
324 324 324 319 317 319 322 325 326 325 324 326 328 328 332 339 344 345 350 352 348 338 336 336 333 333 332 322 334 78 114 129 146 146 145 144 145 145 144 141 141 141 135
321 324 326 325 323 322 321 320 319 321 322 323 321 325 330 334 334 336 342 346 345 340 339 339 332 330 327 324 20 111 124 125 143 144 142 143 141 138 136 136 135 133 129
321 319 322 320 320 321 317 315 318 320 320 318 317 323 331 337 339 340 341 341 339 338 336 334 330 326 321 309 263 148 128 125 125 133 138 140 138 135 134 133 129 127 125
321 318 320 320 318 318 321 321 320 318 316 315 317 320 330 339 340 340 338 339 341 342 340 336 336 342 347 1 350 223 168 161 154 150 145 139 135 134 134 133 132 132 130
319 317 314 315 317 316 316 317 317 316 315 315 320 324 328 334 338 338 338 339 342 344 344 345 345 347 352 359 15 32 92 119 121 130 137 137 134 132 131 131 132 133 131
320 319 319 318 315 314 314 314 316 318 319 319 321 322 326 333 336 337 340 343 345 349 349 349 351 353 0 6 19 68 105 109 111 115 122 130 131 132 134 134 134 131 130
326 324 321 317 314 313 312 314 316 318 319 318 319 321 325 329 330 334 338 344 348 350 349 352 355 358 1 22 53 85 102 107 112 116 119 127 129 132 134 133 132 131 130
Height
1425 1424 1422 1420 1418 1416 1414 1412 1410 1408 1406 1404 1402 1401 1400 1398 1397 1396 1395 1394 1393 1391 1391 1391 1390 1390 1391 1391 1392 1392 1392 1392 1390 1388 1390 1390 1392 1393 1394 1395 1396 1396 1397
1420 1419 1417 1415 1413 1411 1409 1407 1405 1402 1400 1398 1397 1395 1393 1392 1391 1390 1388 1387 1385 1384 1383 1383 1383 1383 1383 1384 1384 1384 1384 1385 1385 1382 1382 1384 1385 1386 1387 1388 1389 1389 1390
1416 1414 1412 1410 1408 1406 1404 1402 1400 1397 1394 1393 1391 1389 1388 1386 1385 1383 1382 1380 1379 1377 1376 1376 1375 1376 1375 1376 1377 1377 1377 1379 1379 1378 1376 1377 1378 1380 1381 1382 1382 1383 1384
1411 1410 1408 1406 1404 1402 1400 1398 1395 1392 1390 1388 1386 1384 1382 1380 1379 1377 1375 1373 1371 1370 1369 1368 1368 1368 1368 1369 1369 1370 1371 1372 1372 1372 1371 1371 1372 1374 1375 1375 1375 1377 1378
1407 1406 1404 1402 1400 1398 1396 1393 1390 1388 1385 1383 1381 1379 1377 1375 1373 1371 1369 1367 1365 1363 1362 1361 1361 1361 1361 1362 1363 1363 1364 1365 1365 1365 1365 1366 1366 1368 1369 1369 1370 1371 1372
1403 1402 1400 1398 1395 1393 1391 1388 1386 1383 1381 1378 1376 1373 1371 1369 1368 1366 1364 1361 1359 1357 1355 1354 1354 1354 1355 1356 1356 1357 1358 1358 1359 1359 1359 1360 1360 1362 1364 1364 1365 1366 1367
1399 1398 1396 1394 1391 1389 1387 1384 1381 1379 1376 1373 1371 1368 1366 1364 1362 1360 1358 1356 1353 1351 1349 1348 1347 1347 1348 1348 1349 1350 1351 1352 1353 1354 1353 1354 1355 1356 1358 1359 1360 1361 1362
1396 1394 1392 1390 1387 1385 1382 1380 1377 1374 1371 1368 1366 1363 1360 1358 1356 1354 1352 1350 1347 1345 1344 1342 1341 1341 1342 1343 1342 1342 1343 1344 1346 1348 1348 1349 1350 1351 1353 1355 1355 1357 1358
1392 1390 1389 1386 1384 1381 1378 1376 1373 1370 1367 1364 1361 1358 1355 1352 1351 1349 1347 1344 1341 1339 1338 1337 1336 1335 1336 1337 1337 1336 1337 1338 1340 1341 1343 1344 1345 1347 1349 1350 1351 1353 1354
1389 1387 1385 1383 1380 1378 1375 1372 1369 1366 1363 1360 1357 1354 1351 1348 1346 1344 1343 1340 1337 1334 1333 1331 1331 1330 1330 1331 1331 1331 1331 1331 1333 1334 1336 1338 1340 1342 1344 1346 1347 1349 1351
1386 1384 1382 1380 1377 1375 1372 1369 1366 1362 1359 1356 1353 1350 1347 1344 1342 1340 1338 1336 1333 1331 1328 1327 1325 1325 1325 1325 1326 1326 1326 1327 1327 1329 1330 1332 1335 1337 1339 1342 1344 1346 1348
1382 1380 1378 1376 1374 1371 1368 1365 1362 1359 1356 1352 1349 1345 1343 1341 1338 1336 1334 1332 1330 1328 1325 1323 1321 1321 1321 1321 1320 1321 1321 1322 1323 1325 1326 1328 1331 1333 1336 1338 1341 1344 1347
1379 1377 1375 1373 1370 1368 1365 1362 1359 1356 1353 1349 1346 1342 1339 1337 1335 1333 1330 1328 1326 1325 1322 1320 1319 1318 1317 1316 1316 1316 1317 1318 1319 1321 1323 1325 1328 1331 1334 1336 1339 1341 1344
1376 1374 1372 1369 1367 1365 1362 1359 1356 1353 1350 1347 1343 1340 1337 1334 1332 1329 1327 1325 1323 1321 1319 1317 1316 1315 1314 1313 1313 1313 1314 1315 1317 1319 1321 1324 1327 1330 1332 1334 1337 1339 1342
1374 1372 1369 1367 1364 1362 1359 1357 1354 1351 1349 1345 1342 1339 1335 1331 1329 1328 1325 1322 1321 1319 1317 1315 1313 1312 1311 1311 1311 1311 1312 1314 1315 1318 1320 1323 1325 1328 1330 1333 1335 1338 1340
1371 1369 1366 1364 1361 1359 1356 1353 1351 1349 1346 1343 1341 1338 1334 1331 1328 1326 1323 1321 1320 1318 1316 1314 1312 1311 1311 1310 1310 1310 1311 1312 1314 1317 1319 1322 1324 1326 1329 1332 1334 1337 1339
1369 1366 1364 1362 1359 1356 1353 1350 1347 1345 1343 1340 1338 1335 1333 1330 1327 1324 1322 1320 1319 1317 1315 1313 1312 1311 1310 1310 1309 1309 1310 1312 1314 1315 1318 1320 1322 1325 1328 1331 1333 1336 1339
1366 1364 1362 1359 1357 1354 1352 1349 1346 1342 1339 1336 1335 1333 1330 1328 1326 1323 1322 1319 1317 1316 1314 1313 1312 1311 1310 1309 1309 1309 1309 1311 1313 1315 1317 1319 1322 1324 1327 1330 1333 1336 1338
1364 1361 1359 1357 1355 1353 1350 1347 1344 1341 1338 1335 1332 1331 1329 1327 1325 1323 1321 1319 1317 1315 1314 1312 1311 1310 1309 1309 1308 1309 1309 1310 1312 1314 1317 1319 1322 1324 1327 1330 1332 1335 1338
1361 1360 1357 1355 1353 1351 1348 1346 1343 1340 1338 1335 1332 1330 1328 1326 1323 1322 1320 1319 1317 1315 1314 1312 1311 1310 1309 1309 1309 1309 1310 1311 1312 1314 1316 1319 1322 1324 1327 1330 1332 1335 1338
1359 1358 1356 1353 1351 1349 1347 1344 1342 1340 1337 1335 1332 1331 1329 1326 1324 1322 1320 1319 1317 1315 1314 1313 1311 1310 1310 1309 1309 1309 1310 1311 1312 1314 1317 1319 1322 1324 1327 1330 1333 1335 1338
1358 1356 1354 1352 1349 1347 1345 1343 1341 1339 1336 1334 1332 1330 1328 1326 1324 1322 1320 1319 1317 1316 1315 1313 1312 1311 1310 1310 1310 1310 1310 1311 1313 1315 1317 1319 1322 1325 1328 1330 1333 1336 1339
1356 1354 1352 1350 1348 1346 1344 1342 1340 1338 1336 1334 1331 1329 1327 1325 1324 1322 1320 1319 1317 1316 1315 1314 1312 1311 1311 1311 1311 1311 1312 1313 1315 1316 1318 1320 1323 1326 1328 1331 1334 1337 1340
1354 1352 1350 1348 1346 1344 1342 1340 1338 1337 1335 1333 1331 1329 1327 1325 1324 1322 1320 1319 1317 1316 1315 1314 1313 1313 1312 1312 1312 1313 1314 1315 1316 1318 1320 1322 1324 1327 1330 1333 1335 1338 1341
1352 1350 1348 1346 1344 1342 1340 1339 1337 1335 1333 1332 1330 1328 1327 1325 1324 1322 1320 1319 1318 1316 1315 1315 1314 1313 1313 1313 1313 1314 1315 1316 1318 1319 1321 1324 1326 1328 1331 1334 1337 1340 1343
1350 1348 1346 1344 1343 1341 1339 1337 1335 1334 1332 1330 1329 1328 1326 1325 1323 1322 1321 1320 1319 1317 1317 1316 1315 1315 1315 1315 1315 1315 1316 1317 1319 1321 1323 1325 1327 1330 1332 1335 1338 1341 1344